JQ1YUX-13 Tokyo Ota-ku JP current weather conditions

sailwx.info

Wind from 192 at 0 knots gusting 4

Air temperature 29.4° C
Dewpoint 24.8° C

Last reported at 2014-Sep-02 03:39 UTC.
Time now 2014-Sep-02 04:21 UTC

Location: N 35°35' E 139°40'.
View on Google Maps.

See reports from other nearby stations

  
Tides and Currents Weather Stations Pressure Air Temp Water Temp Dewpoint Dewpoint Depression Visibility Wind Speed Wind Dir Waves Ship Positions
date/time (UTC)wind fromknots sea level pressurealtimeterstation pressurevisibilityair tempwater tempwave heightnotes
2014-Sep-02 03:39 192 0 gusting 4 29.4
2014-Sep-02 03:34 223 29.4
2014-Sep-02 03:09 197 30.0
2014-Sep-02 03:04 221 30.0
2014-Sep-02 02:39 042 29.4
2014-Sep-02 02:34 005 29.4
2014-Sep-02 02:09 286 28.3
2014-Sep-02 02:04 315 28.3
2014-Sep-02 01:39 037 27.8
2014-Sep-02 01:34 055 27.8
2014-Sep-02 01:09 005 1 gusting 7 27.2
2014-Sep-02 01:04 341 0 gusting 6 26.7
2014-Sep-02 00:39 021 4 gusting 4 26.1
2014-Sep-02 00:34 049 26.1
2014-Sep-02 00:09 279 25.0
2014-Sep-02 00:04 252 0 gusting 2 25.0
2014-Sep-01 23:39 024 23.9
2014-Sep-01 23:34 287 23.9
2014-Sep-01 23:09 348 22.8
2014-Sep-01 23:04 029 22.2
2014-Sep-01 22:39 059 21.1
2014-Sep-01 22:34 009 21.1
2014-Sep-01 22:09 333 20.6
2014-Sep-01 22:04 339 20.6
2014-Sep-01 21:39 013 20.0
2014-Sep-01 21:34 012 20.0
2014-Sep-01 21:09 013 19.4
2014-Sep-01 21:04 012 19.4
2014-Sep-01 20:39 013 19.4
2014-Sep-01 20:34 013 19.4
2014-Sep-01 20:09 013 19.4
2014-Sep-01 20:04 013 19.4
2014-Sep-01 19:39 035 19.4
2014-Sep-01 19:34 035 19.4
2014-Sep-01 19:09 335 19.4
2014-Sep-01 19:04 334 19.4
2014-Sep-01 18:39 335 19.4
2014-Sep-01 18:34 334 19.4
2014-Sep-01 18:09 334 20.0
2014-Sep-01 18:04 331 20.0
2014-Sep-01 17:39 355 1 gusting 6 20.0
2014-Sep-01 17:34 344 0 gusting 5 20.0
2014-Sep-01 17:09 347 20.0
2014-Sep-01 17:04 312 20.0
2014-Sep-01 16:39 005 20.0
2014-Sep-01 16:34 005 1 gusting 4 20.0
2014-Sep-01 16:09 338 2 gusting 6 20.0
2014-Sep-01 16:04 350 20.0
2014-Sep-01 15:39 306 20.0
2014-Sep-01 15:34 031 0 gusting 3 20.0
2014-Sep-01 15:09 282 20.0
2014-Sep-01 15:04 290 20.0
2014-Sep-01 14:39 355 20.0
2014-Sep-01 14:34 318 20.0
2014-Sep-01 14:09 040 1 gusting 4 20.0
2014-Sep-01 14:04 034 2 gusting 7 20.0
2014-Sep-01 13:39 037 1 gusting 5 20.0
2014-Sep-01 13:34 030 4 gusting 8 20.0
2014-Sep-01 13:09 005 20.0
2014-Sep-01 13:04 355 20.0
2014-Sep-01 12:39 340 20.0
2014-Sep-01 12:34 028 20.0
2014-Sep-01 12:09 320 20.0
2014-Sep-01 12:04 341 20.0
2014-Sep-01 11:39 344 2 gusting 4 20.0
2014-Sep-01 11:34 345 20.0
2014-Sep-01 11:09 014 3 gusting 6 20.0
2014-Sep-01 11:04 329 20.0
2014-Sep-01 10:39 286 20.6
2014-Sep-01 10:34 286 20.6
2014-Sep-01 10:09 033 20.6
2014-Sep-01 10:04 031 1 gusting 6 20.6
2014-Sep-01 09:39 355 21.1
2014-Sep-01 09:34 034 21.1
2014-Sep-01 09:09 040 1 gusting 5 21.1
2014-Sep-01 09:04 333 3 gusting 6 21.1
2014-Sep-01 08:39 355 0 gusting 6 21.1
2014-Sep-01 08:34 020 21.1
2014-Sep-01 08:09 012 21.1
2014-Sep-01 08:04 030 21.1
2014-Sep-01 07:39 346 1 gusting 4 21.1
2014-Sep-01 07:34 026 2 gusting 7 21.1
2014-Sep-01 07:09 029 0 gusting 5 21.1
2014-Sep-01 07:04 048 0 gusting 5 21.1
2014-Sep-01 06:39 014 3 gusting 6 21.1
2014-Sep-01 06:34 030 21.1
2014-Sep-01 06:09 051 21.1
2014-Sep-01 06:04 051 21.1
2014-Sep-01 05:39 057 21.1
2014-Sep-01 05:34 025 0 gusting 6 21.1
2014-Sep-01 05:09 355 21.7
2014-Sep-01 05:04 045 21.7
2014-Sep-01 04:39 045 22.2
2014-Sep-01 04:34 045 22.2
2014-Sep-01 04:09 005 23.3
2014-Sep-01 04:04 028 23.3
2014-Sep-01 03:39 355 23.3
2014-Sep-01 03:34 355 23.3
2014-Sep-01 03:09 333 22.8
2014-Sep-01 03:04 031 22.8
2014-Sep-01 02:39 030 22.2
2014-Sep-01 02:34 036 1 gusting 4 22.2
2014-Sep-01 02:09 035 21.7
2014-Sep-01 02:04 028 1 gusting 6 21.7
2014-Sep-01 01:39 347 21.1
2014-Sep-01 01:34 045 1 gusting 2 21.1
2014-Sep-01 01:09 338 21.7
2014-Sep-01 01:04 336 21.7
2014-Sep-01 00:39 019 22.2
2014-Sep-01 00:34 019 22.2
2014-Sep-01 00:09 348 2 gusting 6 22.2
2014-Sep-01 00:04 009 0 22.2
2014-Aug-31 23:39 024 22.8
2014-Aug-31 23:34 029 0 gusting 5 22.8
2014-Aug-31 23:09 042 22.8
2014-Aug-31 23:04 044 0 gusting 4 22.2
2014-Aug-31 22:39 347 0 22.2
2014-Aug-31 22:34 028 1 22.2
2014-Aug-31 22:09 028 22.2
2014-Aug-31 22:04 038 22.2
2014-Aug-31 21:39 032 0 gusting 3 22.2
2014-Aug-31 21:34 021 2 gusting 6 21.7
2014-Aug-31 21:09 022 3 gusting 5 21.7
2014-Aug-31 21:04 355 21.7
2014-Aug-31 20:39 027 21.7
2014-Aug-31 20:34 005 21.7
2014-Aug-31 20:09 018 21.7
2014-Aug-31 20:04 355 21.7
2014-Aug-31 19:39 035 1 gusting 4 22.2
2014-Aug-31 19:34 034 22.2
2014-Aug-31 19:09 341 22.2
2014-Aug-31 19:04 014 22.2
2014-Aug-31 18:39 038 22.2
2014-Aug-31 18:34 026 22.2
2014-Aug-31 18:09 011 22.2
2014-Aug-31 18:04 029 22.2
2014-Aug-31 17:39 024 22.2
2014-Aug-31 17:34 029 22.2
2014-Aug-31 17:09 040 0 gusting 3 22.8
2014-Aug-31 17:04 048 22.8
2014-Aug-31 16:39 019 22.8
2014-Aug-31 16:34 019 22.8
2014-Aug-31 16:09 036 22.8
2014-Aug-31 16:04 337 22.8
2014-Aug-31 15:39 040 22.8
2014-Aug-31 15:34 032 0 gusting 4 22.8
2014-Aug-31 15:09 338 3 gusting 5 22.8
2014-Aug-31 15:04 038 22.8
2014-Aug-31 14:39 040 22.8
2014-Aug-31 14:34 040 22.8
2014-Aug-31 14:09 034 22.8
2014-Aug-31 14:04 034 22.8
2014-Aug-31 13:39 041 22.8
2014-Aug-31 13:34 069 23.3
2014-Aug-31 13:09 037 0 gusting 4 23.3
2014-Aug-31 13:04 038 23.3
2014-Aug-31 12:39 030 23.3
2014-Aug-31 12:34 030 23.3
2014-Aug-31 12:09 304 23.3
2014-Aug-31 12:04 304 23.3
2014-Aug-31 11:39 005 23.3
2014-Aug-31 11:34 009 23.3
2014-Aug-31 11:09 025 23.9
2014-Aug-31 11:04 026 23.9
2014-Aug-31 10:39 011 0 gusting 0 23.9
2014-Aug-31 10:34 178 23.9
2014-Aug-31 10:09 014 23.9
2014-Aug-31 10:04 014 23.9
2014-Aug-31 09:39 029 24.4
2014-Aug-31 09:34 029 24.4
2014-Aug-31 09:09 321 24.4
2014-Aug-31 09:04 320 25.0
2014-Aug-31 08:39 355 25.6
2014-Aug-31 08:34 347 26.1
2014-Aug-31 08:09 055 26.1
2014-Aug-31 08:04 267 26.1
2014-Aug-31 07:39 316 26.7
2014-Aug-31 07:34 051 26.7
2014-Aug-31 07:09 009 26.7
2014-Aug-31 07:04 292 26.7
2014-Aug-31 06:39 235 27.2
2014-Aug-31 06:34 226 26.7
2014-Aug-31 06:09 032 27.2
2014-Aug-31 06:04 349 27.2
2014-Aug-31 05:39 042 1 gusting 5 26.7
2014-Aug-31 05:34 025 0 gusting 5 27.2
2014-Aug-31 05:09 015 1 gusting 5 26.7
2014-Aug-31 05:04 055 3 gusting 5 26.1
2014-Aug-31 04:39 024 25.6
2014-Aug-31 04:34 032 3 gusting 7 25.6
2014-Aug-31 04:09 026 0 gusting 4 25.0
2014-Aug-31 04:04 029 1 gusting 6 25.0